Preview of NWS' New Version of Forecast
This preview is not operational and should not be used for support decisions.

Regional Weather Roundup (RWR)

Issued by National Weather Service (NWS)

                            
000
ASUS44 KJAN 221110
RWRMS 

MISSISSIPPI HOURLY WEATHER ROUNDUP
NATIONAL WEATHER SERVICE JACKSON MS
500 AM CST FRI FEB 22 2019

NOTE: "FAIR: INDICATES FEW OR NO CLOUDS BELOW 12,000 FEET WITH NO
SIGNIFICANT WEATHER AND/OR OBSTRUCTIONS TO VISIBILITY.

MSZ001>002-007>008-010>013-018>021-025>028-034>036-221200-
NORTHWEST MISSISSIPPI
  
CITY           SKY/WX    TMP DP  RH WIND       PRES   REMARKS
BATESVILLE     RAIN      52  50  93 E6        30.08F                  
CLARKSDALE     CLOUDY    50  50 100 N9        30.09R FOG              
CLEVELAND      CLOUDY    48  48 100 NE9       30.06S                  
GREENWOOD      LGT RAIN  49  47  93 E10       30.04F                  
GREENVILLE       N/A    N/A N/A N/A MISG      30.03F                  
OLIVE BRANCH   CLOUDY    45 N/A N/A N8        30.11R FOG              
OXFORD         LGT RAIN  50  50 100 VRB6G14   30.12R                  
TUNICA         HVY RAIN  45  43  93 N9        30.14R                  
WINONA         CLOUDY    48  48 100 E6        30.06R FOG              
$$

MSZ003>006-009-014>017-022>024-029>033-037>039-221200-
NORTHEAST MISSISSIPPI
  
CITY           SKY/WX    TMP DP  RH WIND       PRES   REMARKS
ABERDEEN       CLOUDY    48  48 100 NE6       30.12S FOG              
COLUMBUS AFB   CLOUDY    50  50 100 N7        30.09S                  
CORINTH        HVY RAIN  50  48  93 E7        30.13R                  
GOLDN TRIANGLE CLOUDY    50  50 100 N6        30.10R FOG              
STARKVILLE     CLOUDY    48  46  93 NE3       30.10R                  
TUPELO         RAIN      48  46  93 NE10      30.11F FOG              
$$

MSZ040-058-221200-
CENTRAL MISSISSIPPI
  
CITY           SKY/WX    TMP DP  RH WIND       PRES   REMARKS
JACKSON INTL   CLOUDY    51  50  96 SE3       30.03S FOG              
JACKSON HAWKNS FOG       51  51 100 E6        30.03S VSB 3/4          
MADISON        CLOUDY    50  50 100 CALM      30.03S VSB 1            
MERIDIAN KEY   CLOUDY    54  51  90 N5        30.07R                  
MERIDIAN NAS   FOG       53  52  96 CALM      30.08R VSB 1            
RAYMOND          N/A     52  52 100 E6        30.03R FOG              
VICKSBURG VKS  CLOUDY    52  52 100 CALM      30.02S FOG              
$$

MSZ059>079-221200-
SOUTH MISSISSIPPI
  
CITY           SKY/WX    TMP DP  RH WIND       PRES   REMARKS
HATTIESBURG    MOCLDY    63  62  97 CALM      30.03S FOG              
LAUREL         CLOUDY    55  55 100 CALM      30.05R                  
MCCOMB         CLOUDY    69  67  93 S6        30.00R                  
NATCHEZ        FOG       50  50 100 N5        30.03R VSB 3/4          
PINE BELT      FOG       57  57 100 N3        30.04S VSB 1            
$$

MSZ080>082-221200-
COASTAL MISSISSIPPI
  
CITY           SKY/WX    TMP DP  RH WIND       PRES   REMARKS
BILOXI         FOG       67  67 100 CALM      30.03F VSB 5/8          
PASCAGOULA     FOG       71  68  90 VRB5      30.05R VSB 3/4          
GULFPORT       FOG       68  67  96 CALM      30.03S VSB 1/4          
$$

LAZ007>009-015>016-023>026-221200-
NORTHEAST LOUISIANA
  
CITY           SKY/WX    TMP DP  RH WIND       PRES   REMARKS
BASTROP        CLOUDY    47  46  98 CALM      30.05R FOG              
TALLULAH/VBURG CLOUDY    49  48  97 CALM      30.02S FOG              
VIDALIA        DRIZZLE   49  49  99 N5        30.02R                  
$$